Terug naar catalogus

STARLINK-37095

ActiefCommunicatieVLEO
NORAD 68237·PAYLOAD·🇺🇸 United States

Gelanceerd Mar 17, 2026 vanaf Vandenberg Space Force Base

Loading…

Volgende Passages (komende 24 uur)

TLE

VersSource: CelesTrak SupGP

Epoch: Sep 14, 2026, 22:44 UTC

1 68237C 26054F   26257.94770833  .00002266  00000+0  66915-4 0  2579
2 68237  53.1560 127.9981 0001410 101.5059 313.1826 15.34400161    12

Volg STARLINK-37095 in realtime met AllMySat

Download on the App Store